TimeSAST,TemperatureF,Dew PointF,Humidity,Sea Level PressureIn,VisibilityMPH,Wind Direction,Wind SpeedMPH,Gust SpeedMPH,PrecipitationIn,Events,Conditions,WindDirDegrees,DateUTC
12:00 AM,48.2,44.6,87,30.21,-9999.0,NNW,3.5,-,N/A,,Clear,330,2013-04-18 22:00:00
1:00 AM,48.2,42.8,82,30.21,6.2,NNW,3.5,-,N/A,,Mostly Cloudy,330,2013-04-18 23:00:00
2:00 AM,49,44,77,30.25,31,NNW,2.3,,,,,340,2013-04-19 00:00:00
2:00 AM,50.0,44.6,82,30.21,6.2,NNW,2.3,-,N/A,,Mostly Cloudy,340,2013-04-19 00:00:00
3:00 AM,50.0,46.4,87,30.21,6.2,NW,4.6,-,N/A,,Mostly Cloudy,320,2013-04-19 01:00:00
4:00 AM,50.0,44.6,82,30.21,6.2,NW,5.8,-,N/A,,Partly Cloudy,310,2013-04-19 02:00:00
5:00 AM,48,45,84,30.23,12,NW,4.6,,,,,310,2013-04-19 03:00:00
5:00 AM,48.2,44.6,87,30.21,-9999.0,NW,5.8,-,N/A,,Clear,310,2013-04-19 03:00:00
6:00 AM,48.2,44.6,87,30.21,-9999.0,North,3.5,-,N/A,,Clear,350,2013-04-19 04:00:00
7:00 AM,46.4,42.8,87,30.24,6.2,NW,3.5,-,N/A,,Partly Cloudy,320,2013-04-19 05:00:00
8:00 AM,50,44,75,30.26,12,NNW,3.5,,,,Scattered Clouds,340,2013-04-19 06:00:00
8:00 AM,50.0,44.6,82,30.24,6.2,North,3.5,-,N/A,,Partly Cloudy,350,2013-04-19 06:00:00
9:00 AM,57.2,48.2,72,30.27,6.2,NNW,4.6,-,N/A,,Partly Cloudy,330,2013-04-19 07:00:00
10:00 AM,59.0,46.4,63,30.27,6.2,Variable,2.3,-,N/A,,Scattered Clouds,0,2013-04-19 08:00:00
11:00 AM,63,47,46,30.27,12,,2.3,,,,Partly Cloudy,,2013-04-19 09:00:00
11:00 AM,62.6,48.2,59,30.27,6.2,Variable,3.5,-,N/A,,Scattered Clouds,0,2013-04-19 09:00:00
12:00 PM,59.0,48.2,67,30.24,6.2,SSW,6.9,-,N/A,,Mostly Cloudy,210,2013-04-19 10:00:00
1:00 PM,60.8,50.0,68,30.24,6.2,SSW,8.1,-,N/A,,Scattered Clouds,200,2013-04-19 11:00:00
2:00 PM,62,49,53,30.25,12,South,8.1,,,,Partly Cloudy,170,2013-04-19 12:00:00
2:00 PM,60.8,48.2,63,30.24,6.2,South,8.1,-,N/A,,Scattered Clouds,170,2013-04-19 12:00:00
3:00 PM,60.8,50.0,68,30.24,6.2,SSE,9.2,-,N/A,,Scattered Clouds,150,2013-04-19 13:00:00
4:00 PM,60.8,50.0,68,30.21,6.2,SE,9.2,-,N/A,,Scattered Clouds,130,2013-04-19 14:00:00
5:00 PM,59,51,67,30.25,12,ESE,10.4,,,,Partly Cloudy,120,2013-04-19 15:00:00
5:00 PM,59.0,50.0,72,30.24,6.2,SE,10.4,-,N/A,,Scattered Clouds,130,2013-04-19 15:00:00
6:00 PM,57.2,51.8,82,30.24,6.2,East,6.9,-,N/A,,Scattered Clouds,100,2013-04-19 16:00:00
7:00 PM,55.4,51.8,88,30.27,6.2,ESE,4.6,-,N/A,,Partly Cloudy,120,2013-04-19 17:00:00
8:00 PM,54,51,86,30.27,12,NE,2.3,,,,Partly Cloudy,40,2013-04-19 18:00:00
8:00 PM,53.6,51.8,94,30.27,6.2,ENE,4.6,-,N/A,,Partly Cloudy,60,2013-04-19 18:00:00
9:00 PM,53.6,50.0,88,30.27,6.2,ESE,3.5,-,N/A,,Partly Cloudy,120,2013-04-19 19:00:00
10:00 PM,51.8,50.0,94,30.27,-9999.0,ESE,6.9,-,N/A,,Clear,110,2013-04-19 20:00:00
11:00 PM,51.8,48.2,88,30.27,-9999.0,SE,5.8,-,N/A,,Clear,130,2013-04-19 21:00:00